OBJECT D

基本信息
目录编号:
59509
目录名称:
OBJECT D
国际标识:
2024-069D
轨道中心:
EARTH
物体状态:
已陨落(2024-04-24)
发射日期:
2024-04-11 UTC
国别:
俄罗斯(独联体) (CIS)
轨道信息
数据来源: 国际轨道数据
星历时间: 2024-04-19T00:56:53+0800
半长轴: 6716.731km
偏心率: 0.0222076
轨道倾角: 51.486°
近地点辐角: 105.593°
升交点赤经: 338.091°
平近点角: 257.015°
近地点: 189.433km
远地点: 487.759km
周期: 91.305分钟
每日圈数: 15.771242
详细信息
发射场:
VOSTO
轨道高度:
LEO
数据来源:
AOE Integration Group
参考系:
TEME
时间系统:
UTC
历元类型:
SGP4
2D轨道图
3D轨道图
轨道高度分析图
轨道倾角分析图
轨道综合分析图
查看轨道综合分析图